Home > Time Zones > World Clock > Weather > U.S.A. > Erie > Past weeks

Flag for U.S.A. Weather past 2 weeks in Erie, Pennsylvania, U.S.A.

Now
67 °F

Clear.


Feels Like: 67 °F
Forecast: 67 / 78 °F
Wind: 7 mph from Southeast

Location: Erie International Airport

Current Time: Aug 2, 2014 at 5:54:14 AM

Latest Report: Aug 2, 2014 at 4:51 AM


Visibility: 10 mi

Pressure: 30.08 "Hg

Humidity: 79%

Dew point: 60 °F

Location of ErieLocation

Historic Weather in Erie — Graph

°F

Erie temperature yesterday

Maximum temperature yesterday: 81 °F (at 2:51 PM)
Minimum temperature yesterday: 65 °F (at 12:51 AM)
Average temperature yesterday: 73 °F

Past Weeks' High & Low Weather Summary

 TemperatureHumidityPressure
High83 °F (Jul 22, 11:51 AM)94% (Jul 28, 2:59 AM)30.25 "Hg (Jul 28, 2:59 AM)
Low54 °F (Jul 25, 4:51 AM)34% (Jul 18, 11:51 AM)29.58 "Hg (Jul 28, 12:51 AM)
Average69 °F69%30.00 "Hg
* Reported Jul 18 4:51 AM — Aug 2 4:51 AM, Erie, Weather by CustomWeather, © 2014

Note: Actual official high and low records may vary slightly from our data, if they occured in-between our weather recording intervals... More about our weather records

Advertising

Erie weather history for previous 24 hours

 ConditionsComfort  
Time TempWeatherWind HumidityBarometerVisibility
4:51 AM
Aug 2
67 °FClear.7 mph79%30.08 "Hg10 mi
3:51 AM66 °FClear.3 mph84%30.09 "Hg9 mi
2:51 AM67 °FPassing clouds.7 mph85%30.09 "Hg10 mi
1:51 AM67 °FThundershowers. Overcast.6 mph79%30.09 "Hg10 mi
1:00 AM68 °FStrong thunderstorms. Mostly cloudy.20 mph83%30.13 "Hg1 mi
11:51 PM
Aug 1
69 °FPassing clouds.No wind73%30.09 "Hg9 mi
10:51 PM72 °FClear.No wind66%30.10 "Hg10 mi
9:51 PM73 °FPassing clouds.No wind62%30.10 "Hg10 mi
8:51 PM73 °FSunny.3 mph62%30.10 "Hg10 mi
7:51 PM75 °FSunny.5 mph60%30.09 "Hg10 mi
6:51 PM77 °FSunny.6 mph56%30.09 "Hg10 mi
5:51 PM79 °FSunny.5 mph50%30.08 "Hg10 mi
4:51 PM80 °FPassing clouds.5 mph51%30.09 "Hg10 mi
3:51 PM79 °FPartly sunny.6 mph50%30.10 "Hg10 mi
2:51 PM81 °FSunny.7 mph49%30.11 "Hg10 mi
1:51 PM79 °FSunny.7 mph56%30.12 "Hg10 mi
12:51 PM78 °FScattered clouds.7 mph58%30.12 "Hg10 mi
11:51 AM78 °FSunny.6 mph54%30.13 "Hg10 mi
10:51 AM79 °FSunny.3 mph54%30.12 "Hg10 mi
9:51 AM75 °FSunny.5 mph58%30.12 "Hg10 mi
8:51 AM71 °FSunny.8 mph66%30.12 "Hg10 mi
7:51 AM67 °FSunny.7 mph73%30.11 "Hg10 mi
6:51 AM66 °FPassing clouds.5 mph70%30.10 "Hg10 mi
5:51 AM65 °FClear.5 mph73%30.09 "Hg10 mi
Weather by CustomWeather, © 2014

See weather overviewHow to use our weather pages